This is the latest recevied weather packets stored in our database for station/object KD5BIG-13. If no packets are shown the sender has not sent any weather packets the latest 10 day(s).
| Time | Temp. | Humidity | Pressure | Rain* | Wind** | Luminosity | Snow |
|---|---|---|---|---|---|---|---|
| 1777732597 | 16.67° C | 79% | 1022.4 hPa | 0 mm | - | 583 W/m² | - |
| 1777732295 | 16.67° C | 84% | 1022.5 hPa | 0 mm | - | 561 W/m² | - |
| 1777731992 | 16.67° C | 81% | 1022.4 hPa | 0 mm | - | 539 W/m² | - |
| 1777731688 | 16.11° C | 83% | 1022.2 hPa | 0 mm | - | 522 W/m² | - |
| 1777731386 | 16.11° C | 82% | 1022.2 hPa | 0 mm | - | 498 W/m² | - |
| 1777731083 | 16.11° C | 83% | 1022.1 hPa | 0 mm | - | 467 W/m² | - |
| 1777730782 | 15.56° C | 86% | 1022 hPa | 0 mm | - | 440 W/m² | - |
| 1777730478 | 15.56° C | 89% | 1022 hPa | 0 mm | - | 424 W/m² | - |
| 1777730174 | 15° C | 88% | 1022.2 hPa | 0 mm | - | 398 W/m² | - |
| 1777729871 | 15° C | 89% | 1022.1 hPa | 0 mm | - | 372 W/m² | - |
| 1777729568 | 14.44° C | 92% | 1022 hPa | 0 mm | - | 341 W/m² | - |
| 1777729264 | 13.89° C | 93% | 1021.9 hPa | 0 mm | - | 312 W/m² | - |
| 1777728961 | 13.33° C | 95% | 1021.6 hPa | 0 mm | - | 279 W/m² | - |
| 1777728658 | 13.33° C | 96% | 1021.7 hPa | 0 mm | - | 103 W/m² | - |
| 1777728355 | 12.78° C | 96% | 1021.7 hPa | 0 mm | - | 92 W/m² | - |
| 1777728052 | 12.78° C | 97% | 1021.7 hPa | 0 mm | - | 94 W/m² | - |
| 1777727748 | 12.78° C | 97% | 1021.6 hPa | 0 mm | - | 151 W/m² | - |
| 1777727445 | 12.78° C | 98% | 1021.7 hPa | 0 mm | - | 85 W/m² | - |
| 1777727142 | 12.78° C | 98% | 1021.4 hPa | 0 mm | - | 82 W/m² | - |
| 1777726841 | 12.78° C | 99% | 1021.4 hPa | 0 mm | - | 77 W/m² | - |
| 1777726537 | 12.78° C | 99% | 1021.3 hPa | 0 mm | - | 90 W/m² | - |
| 1777726234 | 12.78° C | 99% | 1021.3 hPa | 0 mm | - | 119 W/m² | - |
| 1777725931 | 12.22° C | 99% | 1021.1 hPa | 0 mm | - | 105 W/m² | - |
| 1777725628 | 12.22° C | 99% | 1021.1 hPa | 0 mm | - | 81 W/m² | - |
| 1777725326 | 12.22° C | 99% | 1021.1 hPa | 0 mm | - | 53 W/m² | - |
* Rain latest hour (hover to see other rain measurements)
** Current wind speed in m/s (hover to see current wind gust speed)